Regional Weather Roundup
Issued by NWS Jackson, KY

Home | Current Version | Previous Version | Text Only | Print | Product List | Glossary Off
Versions: 1 2 3 4 5 6 7 8 9 10 11 12 13 14 15 16 17 18 19 20 21 22 23 24 25 26 27 28

000
ASUS43 KJKL 190410
RWRJKL

EAST KENTUCKY HOURLY WEATHER ROUNDUP
NATIONAL WEATHER SERVICE JACKSON KY
1100 PM EST SUN FEB 18 2018

NOTE: "FAIR" INDICATES FEW OR NO CLOUDS BELOW 12,000 FEET WITH
NO SIGNIFICANT WEATHER AND/OR OBSTRUCTIONS TO VISIBILITY.

* THESE REPORTS ARE NOT UNDER NWS QUALITY CONTROL AND MAY NOT
  REPORT WEATHER SUCH AS PRECIPITATION AND FOG.

KYZ079-080-083-085-087-088-110-112-115-119-120-190500
...EASTERN KENTUCKY...

CITY           SKY/WX    TMP DP  RH WIND       PRES   REMARKS
JACKSON          N/A     48  31  51 VRB5      30.15F
LONDON         CLOUDY    50  35  56 SE3       30.15F
SOMERSET*      CLOUDY    52  36  54 S5        30.16S
WILLIAMSBURG*  MOCLDY    54  39  58 SE8       30.16S
MIDDLESBORO*   CLOUDY    47  42  82 CALM      30.22S
HARLAN APT*    CLOUDY    54  34  47 CALM      30.21S
PIKE CO APT*     N/A     49  33  53 S6        30.18F
BIG SANDY APT*   N/A     46  33  61 SE7       30.18F
MOREHEAD APT*    N/A     45  30  57 SE7       30.16F
ASHLAND*         N/A     36  34  92 CALM      30.19F
$$

KYZ035-036-041-042-044-050-067-078-099-190500
...CENTRAL KENTUCKY...

CITY           SKY/WX    TMP DP  RH WIND       PRES   REMARKS
MT STERLING*     N/A     45  32  61 SE5       30.15F
FLEMING/MASON*   N/A     38  33  80 E5        30.15F WCI  35
DANVILLE*      MOCLDY    43  36  75 CALM      30.14R
LEXINGTON      MOCLDY    48  33  56 SE7       30.13R
FRANKFORT      CLOUDY    47  32  56 SE5       30.11S
LOUISVILLE     CLOUDY    48  35  60 SE5       30.11F
LEBANON*         N/A     50  34  53 S7        30.11F
GLASGOW*       CLOUDY    54  35  47 S5        30.11R
BOWLING GREEN  CLOUDY    53  40  61 CALM      30.11R
$$

KYZ091>093-OHZ055-061-077-WVZ005-015-034-035-042-190500
...SOUTHERN OHIO/WEST VIRGINIA...

CITY           SKY/WX    TMP DP  RH WIND       PRES   REMARKS
COVINGTON      CLOUDY    42  34  73 SE10      30.12S
COLUMBUS       MOCLDY    39  29  67 SE13      30.16F WCI  31
DAYTON         MOCLDY    38  32  79 SE13      30.11F WCI  30
WILMINGTON       N/A     36  32  85 SE7       30.13F WCI  30
HUNTINGTON       N/A     39  31  72 E5        30.16F
CHARLESTON       N/A     37  33  85 CALM      30.19F
BECKLEY          N/A     44  26  49 SE15G25   30.26S
BLUEFIELD        N/A     44  27  51 S15G28    30.29S
LOGAN CO APT*    N/A     52  30  43 VRB6G16   30.20S
$$

VAZ002-007-008-TNZ017-027-036-066-071-190500
...SOUTHWEST VIRGINIA/EAST TENNESSEE...

CITY           SKY/WX    TMP DP  RH WIND       PRES   REMARKS
WISE*          MOCLDY    52  36  54 S12G21    30.24R
JONESVILLE*    CLOUDY    46  39  76 CALM      30.25F
ABINGDON*      MOCLDY    52  35  53 E9        30.28R
BRISTOL        CLOUDY    55  38  52 VRB3      30.25S
MORRISTOWN*    CLOUDY    50  43  76 CALM      30.22S
SEVIERVILLE*   CLOUDY    48  45  87 CALM      30.22F
KNOXVILLE      CLOUDY    52  44  74 CALM      30.21F
OAK RIDGE      CLOUDY    52  46  80 CALM      30.22F
CROSSVILLE     CLOUDY    51  46  83 S13G20    30.19S
NASHVILLE      CLOUDY    58  47  66 S13       30.12S
$$

...KEY TO REMARKS...
VSB - VISIBILITY IN MILES
WCI - WIND CHILL INDEX
HX  - HEAT INDEX

$$




USA.gov is the U.S. government's official web portal to all federal, state and local government web resources and services.